| time (UTC) | temp F | wind direction | speed MPH | gust MPH | rain 1hr in | rain 24hr in | rain mn in | humidity % | barometer mb |
| 20260506233030 | 62 | 0 | 0.0 | 1.0 | 0.00 | 0.00 | 0.00 | 81 | 1012.1 |
| 20260506231529 | 63 | 0 | 0.0 | 1.0 | 0.00 | 0.00 | 0.00 | 81 | 1012.1 |
| 20260506230029 | 63 | 0 | 0.0 | 0.0 | 0.00 | 0.00 | 0.00 | 81 | 1012.0 |
| 20260506224530 | 63 | 73 | 0.0 | 1.0 | 0.00 | 0.00 | 0.00 | 81 | 1012.1 |
| 20260506223032 | 62 | 0 | 0.0 | 1.0 | 0.00 | 0.00 | 0.00 | 82 | 1012.1 |
| 20260506221527 | 63 | 0 | 0.0 | 2.0 | 0.00 | 0.00 | 0.00 | 81 | 1012.1 |
| 20260506220036 | 63 | 86 | 0.0 | 1.0 | 0.00 | 0.00 | 0.00 | 81 | 1012.1 |
| 20260506214530 | 63 | 0 | 0.0 | 2.0 | 0.00 | 0.00 | 0.00 | 81 | 1012.4 |
| 20260506213028 | 63 | 93 | 0.0 | 2.0 | 0.00 | 0.00 | 0.00 | 81 | 1012.4 |
| 20260506211527 | 63 | 107 | 0.0 | 2.0 | 0.00 | 0.00 | 0.00 | 80 | 1012.5 |
| 20260506210030 | 63 | 0 | 0.0 | 1.0 | 0.00 | 0.00 | 0.00 | 81 | 1012.6 |
| 20260506204535 | 63 | 0 | 0.0 | 2.0 | 0.00 | 0.00 | 0.00 | 81 | 1012.3 |
| 20260506203028 | 64 | 101 | 0.0 | 3.0 | 0.00 | 0.00 | 0.00 | 81 | 1012.3 |
| 20260506201528 | 64 | 95 | 2.0 | 3.0 | 0.00 | 0.00 | 0.00 | 81 | 1012.0 |
| 20260506200030 | 64 | 82 | 1.0 | 5.0 | 0.00 | 0.00 | 0.00 | 81 | 1011.9 |
| 20260506194535 | 64 | 107 | 2.0 | 6.0 | 0.00 | 0.00 | 0.00 | 80 | 1011.6 |
| 20260506193030 | 64 | 94 | 3.0 | 6.0 | 0.00 | 0.00 | 0.00 | 80 | 1011.4 |
| 20260506191530 | 65 | 113 | 3.0 | 8.0 | 0.00 | 0.00 | 0.00 | 79 | 1011.2 |
| 20260506190027 | 65 | 104 | 5.0 | 10.0 | 0.00 | 0.00 | 0.00 | 78 | 1011.3 |
| 20260506184530 | 65 | 96 | 5.0 | 11.0 | 0.00 | 0.00 | 0.00 | 77 | 1011.1 |
| 20260506183030 | 66 | 130 | 6.0 | 12.0 | 0.00 | 0.00 | 0.00 | 76 | 1010.9 |
| 20260506181530 | 66 | 84 | 6.0 | 14.0 | 0.00 | 0.00 | 0.00 | 75 | 1011.1 |
| 20260506180030 | 67 | 75 | 5.0 | 11.0 | 0.00 | 0.00 | 0.00 | 73 | 1011.0 |
| 20260506174529 | 67 | 95 | 6.0 | 13.0 | 0.00 | 0.00 | 0.00 | 72 | 1010.8 |
| 20260506173030 | 68 | 86 | 6.0 | 13.0 | 0.00 | 0.00 | 0.00 | 71 | 1010.8 |
| 20260506171530 | 67 | 92 | 9.0 | 18.0 | 0.00 | 0.00 | 0.00 | 71 | 1010.8 |
| 20260506170029 | 68 | 117 | 8.0 | 15.0 | 0.00 | 0.00 | 0.00 | 71 | 1010.9 |
| 20260506164528 | 68 | 70 | 9.0 | 17.0 | 0.00 | 0.00 | 0.00 | 70 | 1010.7 |
| 20260506163030 | 69 | 70 | 9.0 | 17.0 | 0.00 | 0.00 | 0.00 | 67 | 1010.4 |
| 20260506161532 | 69 | 116 | 10.0 | 18.0 | 0.00 | 0.00 | 0.00 | 66 | 1010.5 |
| 20260506160038 | 69 | 115 | 9.0 | 15.0 | 0.00 | 0.00 | 0.00 | 66 | 1010.5 |
| 20260506154532 | 69 | 129 | 11.0 | 18.0 | 0.00 | 0.00 | 0.00 | 66 | 1010.3 |
| 20260506153029 | 69 | 113 | 9.0 | 17.0 | 0.00 | 0.00 | 0.00 | 66 | 1010.5 |
| 20260506151528 | 70 | 117 | 9.0 | 18.0 | 0.00 | 0.00 | 0.00 | 66 | 1010.5 |
| 20260506150029 | 70 | 134 | 10.0 | 18.0 | 0.00 | 0.00 | 0.00 | 65 | 1010.6 |
| 20260506144527 | 70 | 63 | 10.0 | 17.0 | 0.00 | 0.00 | 0.00 | 67 | 1010.7 |
| 20260506143033 | 70 | 153 | 12.0 | 18.0 | 0.00 | 0.00 | 0.00 | 67 | 1010.7 |
| 20260506141528 | 70 | 107 | 9.0 | 20.0 | 0.00 | 0.00 | 0.00 | 67 | 1010.8 |
| 20260506140030 | 70 | 99 | 11.0 | 20.0 | 0.00 | 0.00 | 0.00 | 68 | 1010.8 |
| 20260506134526 | 70 | 96 | 11.0 | 18.0 | 0.00 | 0.00 | 0.00 | 68 | 1011.0 |
| 20260506133030 | 71 | 102 | 10.0 | 16.0 | 0.00 | 0.00 | 0.00 | 65 | 1011.0 |
| 20260506131543 | 72 | 105 | 7.0 | 18.0 | 0.00 | 0.00 | 0.00 | 65 | 1010.9 |
| 20260506130037 | 71 | 64 | 10.0 | 19.0 | 0.00 | 0.00 | 0.00 | 65 | 1011.0 |
| 20260506124531 | 72 | 130 | 9.0 | 16.0 | 0.00 | 0.00 | 0.00 | 63 | 1011.1 |
| 20260506123028 | 73 | 92 | 8.0 | 16.0 | 0.00 | 0.00 | 0.00 | 62 | 1011.1 |
| 20260506121530 | 72 | 137 | 9.0 | 15.0 | 0.00 | 0.00 | 0.00 | 63 | 1011.2 |
| 20260506120028 | 71 | 98 | 10.0 | 18.0 | 0.00 | 0.00 | 0.00 | 63 | 1011.4 |
| 20260506114528 | 72 | 95 | 9.0 | 17.0 | 0.00 | 0.00 | 0.00 | 62 | 1011.4 |
| 20260506113030 | 71 | 133 | 9.0 | 17.0 | 0.00 | 0.00 | 0.00 | 63 | 1011.4 |
| 20260506111527 | 72 | 115 | 10.0 | 15.0 | 0.00 | 0.00 | 0.00 | 63 | 1011.5 |
| 20260506110028 | 73 | 63 | 7.0 | 14.0 | 0.00 | 0.00 | 0.00 | 61 | 1011.4 |
| 20260506104530 | 72 | 123 | 10.0 | 19.0 | 0.00 | 0.00 | 0.00 | 60 | 1011.6 |
| 20260506103037 | 73 | 115 | 8.0 | 16.0 | 0.00 | 0.00 | 0.00 | 58 | 1011.7 |
| 20260506101528 | 73 | 92 | 5.0 | 11.0 | 0.00 | 0.00 | 0.00 | 57 | 1011.7 |
| 20260506100035 | 71 | 112 | 6.0 | 14.0 | 0.00 | 0.00 | 0.00 | 60 | 1011.8 |
| 20260506094535 | 71 | 49 | 4.0 | 12.0 | 0.00 | 0.00 | 0.00 | 59 | 1011.8 |
| 20260506093035 | 70 | 82 | 5.0 | 10.0 | 0.00 | 0.00 | 0.00 | 64 | 1011.7 |
| 20260506091531 | 70 | 75 | 4.0 | 11.0 | 0.00 | 0.00 | 0.00 | 64 | 1011.6 |
| 20260506090028 | 70 | 134 | 0.0 | 4.0 | 0.00 | 0.00 | 0.00 | 67 | 1011.5 |
| 20260506084530 | 68 | 0 | 0.0 | 6.0 | 0.00 | 0.00 | 0.00 | 71 | 1011.4 |
| 20260506083030 | 68 | 58 | 0.0 | 3.0 | 0.00 | 0.00 | 0.00 | 71 | 1011.6 |
| 20260506081533 | 68 | 216 | 1.0 | 3.0 | 0.00 | 0.00 | 0.00 | 72 | 1011.5 |
| 20260506073028 | 68 | 0 | 0.0 | 1.0 | 0.00 | 0.00 | 0.00 | 72 | 1011.5 |
| 20260506071529 | 65 | 0 | 0.0 | 1.0 | 0.00 | 0.00 | 0.00 | 74 | 1011.4 |
| 20260506061528 | 0 | 0.0 | 0.0 | 0.00 | 0.00 | 0.00 | 1011.5 | ||
| 20260506044532 | 0 | 0.0 | 0.0 | 0.00 | 0.00 | 0.00 | 1010.6 | ||
| 20260506043029 | 0 | 0.0 | 0.0 | 0.00 | 0.00 | 0.00 | 1010.5 | ||
| 20260506041528 | 0 | 0.0 | 0.0 | 0.00 | 0.00 | 0.00 | 1010.5 | ||
| 20260506040028 | 0 | 0.0 | 0.0 | 0.00 | 0.00 | 0.00 | 1010.4 | ||
| 20260506034528 | 0 | 0.0 | 0.0 | 0.00 | 0.00 | 0.00 | 1010.4 | ||
| 20260506033029 | 0 | 0.0 | 0.0 | 0.00 | 0.00 | 0.00 | 1010.3 | ||
| 20260506031530 | 0 | 0.0 | 0.0 | 0.00 | 0.00 | 0.00 | 1010.3 | ||
| 20260506030035 | 0 | 0.0 | 0.0 | 0.00 | 0.00 | 0.00 | 1010.0 | ||
| 20260506024541 | 0 | 0.0 | 0.0 | 0.00 | 0.00 | 0.00 | 1010.1 | ||
| 20260506023030 | 0 | 0.0 | 0.0 | 0.00 | 0.00 | 0.00 | 1010.0 | ||
| 20260506021530 | 0 | 0.0 | 0.0 | 0.00 | 0.00 | 0.00 | 1010.2 | ||
| 20260506020030 | 0 | 0.0 | 0.0 | 0.00 | 0.00 | 0.00 | 1010.2 | ||
| 20260506014535 | 0 | 0.0 | 0.0 | 0.00 | 0.00 | 0.00 | 1010.4 | ||
| 20260506013028 | 0 | 0.0 | 0.0 | 0.00 | 0.00 | 0.00 | 1010.4 | ||
| 20260506011530 | 0 | 0.0 | 0.0 | 0.00 | 0.00 | 0.00 | 1010.4 | ||
| 20260506010033 | 0 | 0.0 | 0.0 | 0.00 | 0.00 | 0.00 | 1010.6 | ||
| 20260506004530 | 0 | 0.0 | 0.0 | 0.00 | 0.00 | 0.00 | 1010.5 | ||
| 20260506003033 | 0 | 0.0 | 0.0 | 0.00 | 0.00 | 0.00 | 1010.6 | ||
| 20260506001536 | 0 | 0.0 | 0.0 | 0.00 | 0.00 | 0.00 | 1010.5 | ||
| 20260506000028 | 0 | 0.0 | 0.0 | 0.00 | 0.00 | 0.00 | 1010.8 | ||
| 20260505234534 | 0 | 0.0 | 0.0 | 0.00 | 0.00 | 0.00 | 1010.8 |